TimeCST,TemperatureF,Dew PointF,Humidity,Sea Level PressureIn,VisibilityMPH,Wind Direction,Wind SpeedMPH,Gust SpeedMPH,PrecipitationIn,Events,Conditions,WindDirDegrees,DateUTC
12:15 AM,48.0,41.0,77,30.23,10.0,WSW,11.5,-,N/A,,Clear,240,2013-11-10 06:15:00
12:35 AM,49.3,41.5,75,30.24,10.0,WSW,10.4,-,N/A,,Clear,250,2013-11-10 06:35:00
12:55 AM,49.6,41.9,75,30.23,10.0,WSW,11.5,16.1,N/A,,Clear,250,2013-11-10 06:55:00
1:15 AM,49.5,42.3,76,30.24,10.0,WSW,10.4,-,N/A,,Clear,250,2013-11-10 07:15:00
1:35 AM,49.1,42.4,78,30.24,10.0,West,8.1,-,N/A,,Clear,260,2013-11-10 07:35:00
1:55 AM,49.5,42.8,78,30.24,10.0,West,8.1,-,N/A,,Clear,270,2013-11-10 07:55:00
2:15 AM,48.6,42.6,80,30.24,10.0,West,6.9,-,N/A,,Clear,270,2013-11-10 08:15:00
2:35 AM,47.3,42.1,82,30.25,10.0,West,5.8,-,N/A,,Clear,280,2013-11-10 08:35:00
2:55 AM,46.9,42.6,85,30.25,10.0,WNW,3.5,-,N/A,,Clear,290,2013-11-10 08:55:00
3:15 AM,46.4,42.6,87,30.25,10.0,West,3.5,-,N/A,,Clear,260,2013-11-10 09:15:00
3:35 AM,46.2,42.4,87,30.25,10.0,West,4.6,-,N/A,,Clear,280,2013-11-10 09:35:00
3:55 AM,45.0,42.3,90,30.26,10.0,Calm,Calm,-,N/A,,Clear,0,2013-11-10 09:55:00
4:15 AM,46.4,43.0,88,30.26,10.0,Calm,Calm,-,N/A,,Clear,0,2013-11-10 10:15:00
4:35 AM,45.9,43.0,90,30.27,10.0,Calm,Calm,-,N/A,,Clear,0,2013-11-10 10:35:00
4:55 AM,43.7,41.4,91,30.28,10.0,North,4.6,-,N/A,,Clear,350,2013-11-10 10:55:00
5:15 AM,45.3,44.4,97,30.29,10.0,NNW,6.9,-,N/A,,Clear,340,2013-11-10 11:15:00
5:35 AM,46.4,43.3,89,30.30,10.0,North,5.8,-,N/A,,Clear,350,2013-11-10 11:35:00
5:55 AM,46.9,42.8,86,30.31,10.0,North,6.9,-,N/A,,Clear,350,2013-11-10 11:55:00
6:15 AM,47.1,42.1,83,30.32,10.0,North,6.9,-,N/A,,Clear,350,2013-11-10 12:15:00
6:35 AM,46.4,41.7,84,30.32,10.0,North,6.9,-,N/A,,Clear,350,2013-11-10 12:35:00
6:55 AM,45.9,41.2,84,30.34,10.0,North,4.6,-,N/A,,Clear,360,2013-11-10 12:55:00
7:15 AM,47.7,41.9,80,30.35,10.0,North,8.1,-,N/A,,Clear,360,2013-11-10 13:15:00
7:35 AM,49.1,41.9,76,30.36,10.0,North,6.9,-,N/A,,Clear,360,2013-11-10 13:35:00
7:55 AM,50.0,41.9,74,30.36,10.0,North,8.1,-,N/A,,Clear,10,2013-11-10 13:55:00
8:15 AM,51.1,41.5,70,30.37,10.0,NNE,10.4,-,N/A,,Clear,20,2013-11-10 14:15:00
8:35 AM,51.8,40.3,65,30.37,10.0,NNE,10.4,-,N/A,,Clear,20,2013-11-10 14:35:00
8:55 AM,52.5,40.5,64,30.38,10.0,North,8.1,-,N/A,,Clear,10,2013-11-10 14:55:00
9:15 AM,53.1,39.4,60,30.39,10.0,NNE,9.2,-,N/A,,Clear,30,2013-11-10 15:15:00
9:35 AM,53.8,38.5,56,30.39,10.0,NNE,10.4,-,N/A,,Clear,20,2013-11-10 15:35:00
9:55 AM,54.5,37.9,54,30.39,10.0,North,9.2,-,N/A,,Clear,10,2013-11-10 15:55:00
10:15 AM,54.9,36.9,51,30.40,10.0,North,10.4,-,N/A,,Clear,10,2013-11-10 16:15:00
10:35 AM,55.8,37.0,49,30.39,10.0,NE,9.2,-,N/A,,Clear,40,2013-11-10 16:35:00
10:55 AM,55.6,35.6,47,30.39,10.0,North,5.8,-,N/A,,Clear,10,2013-11-10 16:55:00
11:15 AM,56.5,35.8,46,30.38,10.0,NNE,10.4,-,N/A,,Clear,20,2013-11-10 17:15:00
11:35 AM,57.0,33.8,42,30.38,10.0,North,6.9,-,N/A,,Clear,10,2013-11-10 17:35:00
11:55 AM,57.9,32.5,38,30.37,10.0,NE,8.1,-,N/A,,Clear,50,2013-11-10 17:55:00
12:15 PM,58.6,33.1,38,30.36,10.0,NNW,6.9,-,N/A,,Clear,340,2013-11-10 18:15:00
12:35 PM,59.2,31.8,36,30.35,10.0,NNW,6.9,-,N/A,,Clear,340,2013-11-10 18:35:00
12:55 PM,59.7,31.6,35,30.35,10.0,North,8.1,-,N/A,,Clear,360,2013-11-10 18:55:00
1:15 PM,60.1,30.7,33,30.35,10.0,North,9.2,-,N/A,,Clear,360,2013-11-10 19:15:00
1:35 PM,60.3,31.3,34,30.34,10.0,North,3.5,-,N/A,,Clear,10,2013-11-10 19:35:00
1:55 PM,60.3,29.5,31,30.34,10.0,NNE,9.2,-,N/A,,Clear,20,2013-11-10 19:55:00
2:15 PM,60.1,29.5,31,30.34,10.0,North,9.2,-,N/A,,Clear,10,2013-11-10 20:15:00
2:35 PM,60.1,30.0,32,30.34,10.0,North,8.1,-,N/A,,Clear,10,2013-11-10 20:35:00
2:55 PM,59.5,29.1,32,30.34,10.0,Calm,Calm,-,N/A,,Clear,0,2013-11-10 20:55:00
3:15 PM,59.2,29.5,32,30.34,10.0,North,4.6,-,N/A,,Clear,10,2013-11-10 21:15:00
3:35 PM,58.5,29.8,34,30.34,10.0,North,6.9,-,N/A,,Clear,360,2013-11-10 21:35:00
3:55 PM,57.6,30.6,36,30.34,10.0,North,6.9,-,N/A,,Clear,10,2013-11-10 21:55:00
4:15 PM,55.8,30.4,38,30.34,10.0,North,4.6,-,N/A,,Clear,350,2013-11-10 22:15:00
4:35 PM,53.2,31.5,43,30.34,10.0,North,3.5,-,N/A,,Clear,350,2013-11-10 22:35:00
4:55 PM,51.3,31.6,47,30.34,10.0,NE,3.5,-,N/A,,Clear,50,2013-11-10 22:55:00
5:15 PM,52.2,31.3,45,30.35,10.0,Calm,Calm,-,N/A,,Clear,0,2013-11-10 23:15:00
5:35 PM,50.4,31.6,49,30.36,10.0,Calm,Calm,-,N/A,,Clear,0,2013-11-10 23:35:00
5:55 PM,47.1,31.1,54,30.36,10.0,Calm,Calm,-,N/A,,Clear,0,2013-11-10 23:55:00
6:15 PM,48.2,31.1,52,30.36,10.0,Calm,Calm,-,N/A,,Clear,0,2013-11-11 00:15:00
6:35 PM,46.6,31.6,56,30.36,10.0,Calm,Calm,-,N/A,,Clear,0,2013-11-11 00:35:00
6:55 PM,45.3,32.4,61,30.36,10.0,Calm,Calm,-,N/A,,Clear,0,2013-11-11 00:55:00
7:15 PM,42.6,31.6,65,30.36,10.0,Calm,Calm,-,N/A,,Clear,0,2013-11-11 01:15:00
7:35 PM,43.0,32.4,66,30.35,10.0,Calm,Calm,-,N/A,,Clear,0,2013-11-11 01:35:00
7:55 PM,39.0,32.9,79,30.35,10.0,Calm,Calm,-,N/A,,Clear,0,2013-11-11 01:55:00
8:15 PM,40.8,32.9,73,30.35,10.0,Calm,Calm,-,N/A,,Clear,0,2013-11-11 02:15:00
8:35 PM,39.6,32.2,75,30.34,10.0,Calm,Calm,-,N/A,,Clear,0,2013-11-11 02:35:00
8:55 PM,39.0,33.1,79,30.34,10.0,Calm,Calm,-,N/A,,Clear,0,2013-11-11 02:55:00
9:15 PM,37.8,32.5,81,30.34,10.0,Calm,Calm,-,N/A,,Clear,0,2013-11-11 03:15:00
9:35 PM,36.7,32.0,83,30.34,10.0,Calm,Calm,-,N/A,,Clear,0,2013-11-11 03:35:00
9:55 PM,38.1,32.0,79,30.34,10.0,Calm,Calm,-,N/A,,Clear,0,2013-11-11 03:55:00
10:15 PM,36.5,32.0,84,30.34,10.0,Calm,Calm,-,N/A,,Clear,0,2013-11-11 04:15:00
10:35 PM,36.5,32.0,84,30.34,10.0,Calm,Calm,-,N/A,,Clear,0,2013-11-11 04:35:00
10:55 PM,36.5,32.0,84,30.34,10.0,Calm,Calm,-,N/A,,Clear,0,2013-11-11 04:55:00
11:15 PM,34.9,32.0,89,30.34,10.0,Calm,Calm,-,N/A,,Clear,0,2013-11-11 05:15:00
11:35 PM,34.7,32.0,90,30.34,10.0,Calm,Calm,-,N/A,,Clear,0,2013-11-11 05:35:00
11:55 PM,35.6,32.0,87,30.34,10.0,Calm,Calm,-,N/A,,Clear,0,2013-11-11 05:55:00